[TLELIST] Archives

 

[list_settings.list_name] Current TLEs

August 7th 2010 PST

HST 1 20580U 90037B 10217.58381515 .00000486 00000-0 24389-4 0 6222 2 20580 028.4695 277.3775 0003363 011.3645 348.7015 15.01009429912184 ISS (ZARYA) 1 25544U 98067A 10219.50508944 .00019285 00000-0 15099-3 0 6638 2 25544 051.6463 327.9891 0006875 194.0659 270.0512 15.71599019671543 CXO 1 25867U 99040B 10219.33333333 -.00000466 00000-0 10000-3 0 4993 2 25867 067.3826 050.9320 8236590 275.3518 002.5662 00.37799183 6582 ____________________________________________________________________ These 2-Line ...Continue Reading

[list_settings.list_name] Current TLEs

August 6th 2010 PST

HST 1 20580U 90037B 10217.58381515 .00000486 00000-0 24389-4 0 6222 2 20580 028.4695 277.3775 0003363 011.3645 348.7015 15.01009429912184 ISS (ZARYA) 1 25544U 98067A 10218.48536319 .00017008 00000-0 13401-3 0 6569 2 25544 051.6463 333.2048 0006988 190.6682 260.2693 15.71551038671382 CXO 1 25867U 99040B 10219.29166667 -.00000467 00000-0 10000-3 0 4982 2 25867 067.3937 050.9262 8236761 275.3544 356.8821 00.37799002 6581 ____________________________________________________________________ These 2-Line ...Continue Reading

[list_settings.list_name] Current TLEs

August 5th 2010 PST

HST 1 20580U 90037B 10216.58644794 .00000488 00000-0 24548-4 0 6210 2 20580 028.4695 283.8869 0003357 000.6659 359.3930 15.01008823912034 ISS (ZARYA) 1 25544U 98067A 10217.33229068 .00011762 00000-0 94423-4 0 6501 2 25544 051.6472 339.1042 0007241 185.0581 217.9038 15.71487824671204 CXO 1 25867U 99040B 10216.66666667 -.00000468 00000-0 10000-3 0 4975 2 25867 067.3877 051.0479 8232631 275.3893 359.4149 00.37797998 6578 ____________________________________________________________________ These 2-Line ...Continue Reading

[list_settings.list_name] Current TLEs

August 4th 2010 PST

HST 1 20580U 90037B 10215.38960793 .00000495 00000-0 25014-4 0 6203 2 20580 028.4694 291.6985 0003365 347.9776 012.0790 15.01008105911854 ISS (ZARYA) 1 25544U 98067A 10216.51424287 .00010637 00000-0 85945-4 0 6442 2 25544 051.6468 343.2894 0007276 182.9562 268.9176 15.71462330671072 CXO 1 25867U 99040B 10216.66666667 -.00000468 00000-0 10000-3 0 4975 2 25867 067.3877 051.0479 8232631 275.3893 359.4149 00.37797998 6578 ____________________________________________________________________ These 2-Line ...Continue Reading

[list_settings.list_name] Current TLEs

August 3rd 2010 PST

HST 1 20580U 90037B 10213.99329173 .00000445 00000-0 21251-4 0 6191 2 20580 028.4686 300.8130 0003315 333.4923 026.5469 15.01006748911640 ISS (ZARYA) 1 25544U 98067A 10215.50119786 .00010331 00000-0 83690-4 0 6384 2 25544 051.6472 348.4707 0007341 178.5647 298.4283 15.71438092670912 CXO 1 25867U 99040B 10214.00000000 -.00000413 00000-0 10000-3 0 4963 2 25867 067.3712 051.2008 8232727 275.3936 356.3421 00.37805903 6564 ____________________________________________________________________ These 2-Line ...Continue Reading

[list_settings.list_name] Current TLEs

August 2nd 2010 PST

HST 1 20580U 90037B 10213.99329173 .00000445 00000-0 21251-4 0 6191 2 20580 028.4686 300.8130 0003315 333.4923 026.5469 15.01006748911640 ISS (ZARYA) 1 25544U 98067A 10214.28506546 .00010827 00000-0 87563-4 0 6307 2 25544 051.6464 354.6906 0007529 174.8705 257.6849 15.71413488670721 CXO 1 25867U 99040B 10214.00000000 -.00000413 00000-0 10000-3 0 4963 2 25867 067.3712 051.2008 8232727 275.3936 356.3421 00.37805903 6564 ____________________________________________________________________ These 2-Line ...Continue Reading

[list_settings.list_name] Current TLEs

August 1st 2010 PST

HST 1 20580U 90037B 10213.39487084 .00000465 00000-0 22732-4 0 6154 2 20580 028.4697 304.7263 0003212 320.0542 039.9820 15.01006709911553 ISS (ZARYA) 1 25544U 98067A 10213.52393383 .00008874 00000-0 72702-4 0 6258 2 25544 051.6467 358.5877 0007286 171.2821 272.6068 15.71393617670602 CXO 1 25867U 99040B 10214.00000000 -.00000413 00000-0 10000-3 0 4963 2 25867 067.3712 051.2008 8232727 275.3936 356.3421 00.37805903 6564 ____________________________________________________________________ These 2-Line ...Continue Reading

[list_settings.list_name] Current TLEs

July 31st 2010 PST

HST 1 20580U 90037B 10211.73259020 .00000615 00000-0 34199-4 0 6132 2 20580 028.4693 315.5735 0003144 303.6721 056.3603 15.01006220911306 ISS (ZARYA) 1 25544U 98067A 10212.49161714 .00011227 00000-0 85980-4 0 6184 2 25544 051.6448 003.8645 0007808 169.0798 191.0900 15.71371729 74676 CXO 1 25867U 99040B 10208.78735174 .00000000 00000-0 10000-3 0 4958 2 25867 067.3752 051.3863 8224117 275.3383 006.8230 00.37813764 6545 ____________________________________________________________________ These 2-Line ...Continue Reading

[list_settings.list_name] Current TLEs

July 30th 2010 PST

HST 1 20580U 90037B 10209.73785346 .00000455 00000-0 22002-4 0 6114 2 20580 028.4699 328.5983 0003223 280.9802 079.0485 15.01004457911003 ISS (ZARYA) 1 25544U 98067A 10211.49231142 -.00001303 00000-0 -52810-5 0 6123 2 25544 051.6442 008.9766 0007829 170.0292 293.3384 15.71323936670282 CXO 1 25867U 99040B 10208.78735174 .00000000 00000-0 10000-3 0 4958 2 25867 067.3752 051.3863 8224117 275.3383 006.8230 00.37813764 6545 ____________________________________________________________________ These 2-Line ...Continue Reading

[list_settings.list_name] Current TLEs

July 29th 2010 PST

HST 1 20580U 90037B 10209.73785346 .00000455 00000-0 22002-4 0 6114 2 20580 028.4699 328.5983 0003223 280.9802 079.0485 15.01004457911003 ISS (ZARYA) 1 25544U 98067A 10210.52791510 .00011113 00000-0 90068-4 0 6052 2 25544 051.6447 013.9091 0007693 160.5972 243.7116 15.71327243670133 CXO 1 25867U 99040B 10208.70833333 -.00000494 00000-0 10000-3 0 4932 2 25867 067.3340 051.4925 8228778 275.3535 356.0485 00.37803975 6549 ____________________________________________________________________ These 2-Line ...Continue Reading
  • This mailing list is a public mailing list - anyone may join or leave, at any time.
  • This mailing list is announce-only.

International Space Station (ISS) / Hubble Space Telescope (HST) / Chandra X-Ray Observatory Orbital Data via EMAIL

Privacy Policy:

Private list